Mosinee, WI

11:47 PM CDT on April 29, 2017 (GMT -0500)
Central Wisconsin

Weather History for KCWA - February, 2014

Change the Weather History Date:

Thursday, February 20, 2014

  Actual Average Record
Temperature  
Mean Temperature 30 °F -  
Max Temperature 33 °F 28 °F 50 °F (2017)
Min Temperature 28 °F 11 °F -13 °F (2015)
Degree Days  
Heating Degree Days 34    
Moisture  
Dew Point 27 °F    
Average Humidity 84    
Maximum Humidity 100    
Minimum Humidity 64    
Precipitation  
Precipitation 0.03 in - - ()
Sea Level Pressure  
Sea Level Pressure 29.48 in    
Wind  
Wind Speed 9 mph (ESE)    
Max Wind Speed 25 mph    
Max Gust Speed 41 mph    
Visibility 8 miles    
Events Rain , Snow    
Averages and records for this station are not official NWS values.
T = Trace of Precipitation, MM = Missing Value Source: NWS Daily Summary

Daily Weather History Graph

Daily Weather History Graph

Search for Another Location

Airport or City:

Trip Planner

Search our weather history database for the weather conditions in past years. The results will help you decide how hot, cold, wet, or windy it might be!

Date:

Astronomy

Feb. 20, 2014 Rise Set
Actual Time 6:51 AM CST 5:34 PM CST
Civil Twilight 6:21 AM CST 6:03 PM CST
Nautical Twilight 5:47 AM CST 6:37 PM CST
Astronomical Twilight 5:13 AM CST 7:11 PM CST
Moon 11:44 PM CST (2/20) 9:19 AM CST (2/20)
Length of Visible Light 11h 42m
Length of Day
10h 42m
Waning Gibbous, 70% of the Moon is Illuminated
Feb 20
Waning Gibbous
Feb 22
Last Quarter
Mar 1
New
Mar 8
First Quarter
Mar 16
Full

Hourly Weather History & Observations

Time (CST) Temp. Windchill Dew Point Humidity Pressure Visibility Wind Dir Wind Speed Gust Speed Precip Events Conditions
12:05 AM 30.2 °F 22.6 °F 24.8 °F 80% 29.83 in 10.0 mi South 8.1 mph - N/A   Scattered Clouds
12:15 AM 32.0 °F 25.6 °F 23.0 °F 69% 29.83 in 10.0 mi SSE 6.9 mph - N/A   Scattered Clouds
12:44 AM 30.2 °F 24.3 °F 21.2 °F 69% 29.83 in 10.0 mi SSE 5.8 mph - N/A   Clear
12:55 AM 32.0 °F 26.4 °F 23.0 °F 69% 29.82 in 10.0 mi SSE 5.8 mph - N/A   Clear
1:15 AM 32.0 °F 25.6 °F 23.0 °F 69% 29.82 in 10.0 mi SSE 6.9 mph - N/A   Clear
1:55 AM 30.2 °F 25.4 °F 21.2 °F 69% 29.80 in 10.0 mi SE 4.6 mph - N/A   Clear
2:06 AM 30.2 °F 24.3 °F 21.2 °F 69% 29.80 in 10.0 mi SE 5.8 mph - N/A   Clear
2:15 AM 30.2 °F 24.3 °F 21.2 °F 69% 29.80 in 10.0 mi SE 5.8 mph - N/A   Clear
2:21 AM 28.4 °F 23.3 °F 21.2 °F 74% 29.79 in 10.0 mi SE 4.6 mph - N/A   Clear
2:35 AM 30.2 °F 26.7 °F 21.2 °F 69% 29.79 in 10.0 mi ESE 3.5 mph - N/A   Scattered Clouds
2:47 AM 30.2 °F 26.7 °F 21.2 °F 69% 29.79 in 10.0 mi ESE 3.5 mph - N/A   Scattered Clouds
2:55 AM 30.2 °F 26.7 °F 21.2 °F 69% 29.79 in 10.0 mi ESE 3.5 mph - N/A   Mostly Cloudy
3:04 AM 30.2 °F 25.4 °F 21.2 °F 69% 29.78 in 10.0 mi ESE 4.6 mph - N/A   Mostly Cloudy
3:25 AM 30.2 °F 24.3 °F 21.2 °F 69% 29.77 in 10.0 mi ESE 5.8 mph - N/A   Overcast
3:35 AM 32.0 °F 27.5 °F 21.2 °F 64% 29.77 in 10.0 mi ESE 4.6 mph - N/A   Overcast
3:55 AM 32.0 °F 27.5 °F 21.2 °F 64% 29.77 in 10.0 mi ESE 4.6 mph - N/A   Overcast
4:46 AM 30.2 °F 23.4 °F 21.2 °F 69% 29.75 in 10.0 mi East 6.9 mph - N/A   Overcast
5:05 AM 30.2 °F 24.3 °F 21.2 °F 69% 29.74 in 10.0 mi East 5.8 mph - N/A   Mostly Cloudy
5:26 AM 30.2 °F 23.4 °F 21.2 °F 69% 29.73 in 10.0 mi ESE 6.9 mph - N/A   Scattered Clouds
5:45 AM 30.2 °F 22.6 °F 21.2 °F 69% 29.72 in 10.0 mi East 8.1 mph - N/A   Mostly Cloudy
6:45 AM 30.2 °F 22.6 °F 23.0 °F 75% 29.72 in 10.0 mi ESE 8.1 mph - N/A   Overcast
7:45 AM 30.2 °F 21.3 °F 23.0 °F 75% 29.72 in 10.0 mi ESE 10.4 mph - N/A   Overcast
8:20 AM 30.2 °F 23.4 °F 24.8 °F 80% 29.71 in 10.0 mi ESE 6.9 mph - N/A   Overcast
8:45 AM 32.0 °F 24.2 °F 24.8 °F 75% 29.69 in 10.0 mi East 9.2 mph - N/A   Overcast
9:45 AM 30.2 °F 24.3 °F 24.8 °F 80% 29.67 in 10.0 mi East 5.8 mph - N/A   Overcast
10:55 AM 33.8 °F 26.4 °F 30.2 °F 87% 29.65 in 5.0 mi East 9.2 mph - N/A Snow Light Snow
11:45 AM 33.8 °F 23.9 °F 32.0 °F 93% 29.60 in 2.0 mi East 15.0 mph 20.7 mph N/A Rain Light Rain
12:45 PM 33.8 °F 23.5 °F 33.8 °F 100% 29.56 in 2.5 mi East 16.1 mph 20.7 mph N/A Rain Light Rain
1:45 PM 33.8 °F 23.2 °F 33.8 °F 100% 29.50 in 7.0 mi East 17.3 mph 27.6 mph N/A Rain Light Rain
2:15 PM 33.8 °F 22.8 °F 33.8 °F 100% 29.41 in 10.0 mi East 18.4 mph 28.8 mph N/A   Overcast
2:50 PM 33.8 °F 22.8 °F 33.8 °F 100% 29.39 in 10.0 mi East 18.4 mph 28.8 mph N/A   Overcast
3:55 PM 33.8 °F 22.8 °F 33.8 °F 100% 29.33 in 10.0 mi East 18.4 mph 29.9 mph N/A   Overcast
4:45 PM 33.8 °F 23.9 °F 33.8 °F 100% 29.31 in 10.0 mi East 15.0 mph 38.0 mph N/A   Overcast
5:45 PM 33.8 °F 22.2 °F 33.8 °F 100% 29.23 in 3.0 mi East 20.7 mph 32.2 mph N/A Rain , Snow Light Rain
6:53 PM 33.8 °F 21.6 °F 33.8 °F 100% 29.11 in 10.0 mi East 23.0 mph 32.2 mph N/A   Overcast
7:47 PM 33.8 °F 21.0 °F 33.8 °F 100% 29.06 in 10.0 mi East 25.3 mph 41.4 mph N/A   Overcast
8:45 PM 33.8 °F 22.8 °F 33.8 °F 100% 29.01 in 5.0 mi East 18.4 mph 32.2 mph N/A   Overcast
9:15 PM 32.0 °F 20.5 °F 32.0 °F 100% 29.00 in 3.0 mi East 18.4 mph 25.3 mph N/A   Overcast
9:35 PM 32.0 °F 21.6 °F 32.0 °F 100% 28.98 in 3.0 mi East 15.0 mph 20.7 mph N/A   Overcast
9:45 PM 32.0 °F 22.5 °F 32.0 °F 100% 28.97 in 4.0 mi East 12.7 mph 20.7 mph N/A Snow Light Snow
9:55 PM 32.0 °F 22.5 °F 32.0 °F 100% 28.96 in 4.0 mi East 12.7 mph - N/A   Overcast
10:15 PM 32.0 °F 23.0 °F 32.0 °F 100% 28.94 in 7.0 mi East 11.5 mph - N/A   Overcast
10:35 PM 32.0 °F 26.4 °F 32.0 °F 100% 28.93 in 4.0 mi East 5.8 mph - N/A Snow Light Snow
10:55 PM 32.0 °F 26.4 °F 32.0 °F 100% 28.92 in 3.0 mi East 5.8 mph - N/A Snow Light Snow
11:15 PM 32.0 °F - 32.0 °F 100% 28.90 in 1.8 mi Calm Calm - 0.01 in Snow Light Snow
11:35 PM 32.0 °F 25.6 °F 32.0 °F 100% 28.90 in 1.8 mi West 6.9 mph - 0.02 in Snow Light Snow
11:55 PM 32.0 °F 24.2 °F 32.0 °F 100% 28.89 in 2.0 mi West 9.2 mph - 0.03 in Snow Light Snow